Location: Palmerston North
(40.3500°S, 175.6170°E)
Time: 19:32:15
(UTC+13:00)

MOS 1 - Pass Details

Date: 24 January 2019
Orbit: 878 x 892 km, 99.2° (Epoch: 15 February)

Event Time Altitude Azimuth Distance (km) Brightness Sun altitude
Rises 21:10:58 0° 165° (SSE) 3,540 7.7 -5.4°
Reaches altitude 10° 21:13:24 10° 164° (SSE) 2,593 7.0 -5.8°
Maximum altitude 21:19:12 81° 75° (ENE) 917 4.3 -6.8°
Drops below altitude 10° 21:24:55 10° 348° (NNW) 2,559 6.5 -7.7°
Sets 21:27:18 0° 347° (NNW) 3,489 7.2 -8.1°
